STARLINK-11377, 62013

Orbit data source: Space-Track

STARLINK-11377, 62013 is a payload satellite owned by SpaceX/Seattle (US) in LEO that was launched on Mon, 18 Nov 2024 UTC via an FALCON 9 launch vehicle from the Air Force Western Test Range (AFWTR). Payload-class satellites include a variety of spacecraft equipped with specific instruments for various scientific and technological missions. These include communications satellites like Starlink; space stations such as the ISS; scientific satellites like the Hubble; Earth observation satellites from companies like Planet Labs, Umbra, and HawkEye 360; GPS; miniature CubeSats for education and research; and military/defense satellites.

Loading next visibility...
Identifier
62013, 2024-213F
Orbit
LEO
Country
Flag of USUS
Related business
Manufacturer
SpaceX/Seattle
Mission
Operational Commercial Communications
Bus & Motor
STARLINK V2MD, Unknown motor
Mass
960 kg wet, ~910 kg dry
Launch date (UTC)
2024-11-18 (11 months ago)
Launch vehicle
FALCON 9
Launch site
Air Force Western Test Range (AFWTR)
Object type
Payload
Rocket body
Debris
Shape & HBR
Box + 2 Pan, 18.1 m
Radar Cross Section
36.964 m², Large (>1 m²)

Expand to show TLE details & history
Last TLE update: 15 hours ago

TLE from 15 hours ago
0 STARLINK-11377
1 62013U 24213F   25291.56007225  .00165257  00000-0  13396-2 0  9990
2 62013  53.1579  21.8021 0001575  43.6799 316.4344 15.69750655 52599
Epoch: 2025-10-18T13:26Z
TLE epoch observation values (Epoch: 2025-10-18T13:26:30.242Z)
Latitude
0.00004°
Longitude
152.88678°
Altitude
359.756 km
Speed
7.695 km/s
True Right ascension
01h 27m 12s
True Declination
0° 00' 00"
Sunlit
Object was in full shadow at epoch
Visualization orbit readout
Latitude
Unknown
Longitude
Unknown
Altitude
Unknown
Speed
Unknown
Apparent Right ascension
Unknown
Apparent Declination
Unknown
Sunlit
N/A
Visualization observer readout
Local Sidereal Time
23:32:28
Azimuth
Unknown
Elevation
Unknown
Doppler factor
Unknown
Orbital elements
Apogee altitude
360.933 km
Perigee altitude
358.81 km
Semi-major axis
6,738.008 km
Eccentricity
0.00016
Inclination
53.1579°
RAAN
21.8021°
Arg. of periapsis
43.6799°
True anomaly
316.42196°
Mean anomaly
316.4344°
Eccentric anomaly
316.42818°
Mean motion
3.92415 °/min
Orbital period
91.74 mins
BSTAR
0.0013396
Loading maneuver chart data...
Computing Atmospheric mass density...
Loading historical data...
Loading historical data...
Loading historical data...
Loading historical data...
Loading historical data...
Loading historical data...
Loading historical data...

Documentation

Showing up to 5 results
|